SH002 KNSE-KNSE

Flight info

Callsign SH002
Flight time 1h 43m
Altitude 9500
Route VFR
Aircraft TEX2/L-SDFGRWY/S

Departure

Time 2026-04-25 17:15
Airport Whiting Field Naval Air Station - North (KNSE)

Arrival

Time 2026-04-25 18:58
Airport Whiting Field Naval Air Station - North (KNSE)
Time Latitude Longitude Altitude Speed Heading
2026-04-25 17:05 30.71909 -87.02329 174 ft 0 kts 182°
2026-04-25 17:07 30.71902 -87.02318 174 ft 3 kts 104°
2026-04-25 17:07 30.71893 -87.02330 174 ft 6 kts 282°
2026-04-25 17:08 30.71895 -87.02362 174 ft 0 kts 268°
2026-04-25 17:08 30.71898 -87.02380 174 ft 6 kts 305°
2026-04-25 17:08 30.71920 -87.02406 174 ft 7 kts 315°
2026-04-25 17:08 30.71973 -87.02483 174 ft 10 kts 304°
2026-04-25 17:09 30.71997 -87.02529 175 ft 4 kts 300°
2026-04-25 17:09 30.72014 -87.02569 175 ft 9 kts 293°
2026-04-25 17:09 30.72043 -87.02632 177 ft 7 kts 298°
2026-04-25 17:09 30.72079 -87.02692 177 ft 11 kts 307°
2026-04-25 17:10 30.72137 -87.02744 177 ft 7 kts 343°
2026-04-25 17:10 30.72189 -87.02750 178 ft 7 kts
2026-04-25 17:10 30.72232 -87.02747 178 ft 5 kts
2026-04-25 17:10 30.72269 -87.02746 179 ft 7 kts
2026-04-25 17:11 30.72340 -87.02743 181 ft 9 kts
2026-04-25 17:11 30.72396 -87.02740 182 ft 7 kts
2026-04-25 17:11 30.72451 -87.02739 183 ft 9 kts
2026-04-25 17:11 30.72519 -87.02736 184 ft 9 kts
2026-04-25 17:12 30.72587 -87.02734 185 ft 10 kts
2026-04-25 17:12 30.72663 -87.02730 185 ft 11 kts
2026-04-25 17:12 30.72741 -87.02753 185 ft 12 kts 317°
2026-04-25 17:12 30.72800 -87.02820 187 ft 10 kts 317°
2026-04-25 17:13 30.72850 -87.02871 188 ft 10 kts 319°
2026-04-25 17:13 30.72890 -87.02904 188 ft 11 kts 341°
2026-04-25 17:13 30.72943 -87.02889 189 ft 0 kts 49°
2026-04-25 17:13 30.72962 -87.02866 189 ft 8 kts 46°
2026-04-25 17:14 30.72975 -87.02794 189 ft 11 kts 123°
2026-04-25 17:14 30.72862 -87.02666 187 ft 52 kts 136°
2026-04-25 17:14 30.72459 -87.02230 229 ft 96 kts 138°
2026-04-25 17:14 30.71929 -87.01666 410 ft 107 kts 137°
2026-04-25 17:15 30.71302 -87.00997 569 ft 145 kts 137°
2026-04-25 17:15 30.70479 -87.00112 944 ft 174 kts 137°
2026-04-25 17:15 30.69552 -86.99116 1424 ft 189 kts 139°
2026-04-25 17:15 30.68802 -86.97831 1957 ft 202 kts 104°
2026-04-25 17:16 30.69025 -86.96227 2523 ft 211 kts 63°
2026-04-25 17:16 30.69730 -86.94727 3129 ft 215 kts 58°
2026-04-25 17:16 30.70596 -86.93299 3734 ft 219 kts 53°
2026-04-25 17:16 30.71480 -86.91849 4342 ft 221 kts 53°
2026-04-25 17:17 30.72360 -86.90390 4946 ft 224 kts 53°
2026-04-25 17:17 30.73225 -86.88889 5569 ft 225 kts 54°
2026-04-25 17:17 30.74069 -86.87366 6184 ft 227 kts 54°
2026-04-25 17:17 30.74906 -86.85825 6806 ft 228 kts 54°
2026-04-25 17:18 30.75734 -86.84267 7432 ft 229 kts 54°
2026-04-25 17:18 30.76543 -86.82733 8014 ft 216 kts 54°
2026-04-25 17:18 30.77293 -86.81268 8511 ft 209 kts 54°
2026-04-25 17:18 30.77987 -86.79788 8947 ft 208 kts 59°
2026-04-25 17:19 30.78592 -86.78285 9325 ft 208 kts 59°
2026-04-25 17:19 30.79216 -86.76738 9506 ft 218 kts 59°
2026-04-25 17:19 30.79886 -86.75092 9620 ft 229 kts 59°
2026-04-25 17:19 30.80596 -86.73365 9617 ft 243 kts 59°
2026-04-25 17:20 30.81346 -86.71546 9617 ft 254 kts 59°
2026-04-25 17:20 30.82119 -86.69686 9611 ft 261 kts 59°
2026-04-25 17:20 30.82923 -86.67739 9610 ft 266 kts 59°
2026-04-25 17:20 30.83745 -86.65794 9613 ft 270 kts 58°
2026-04-25 17:21 30.84362 -86.63739 9589 ft 279 kts 82°
2026-04-25 17:21 30.83996 -86.61511 9639 ft 284 kts 107°
2026-04-25 17:21 30.83392 -86.59316 9630 ft 286 kts 104°
2026-04-25 17:21 30.83033 -86.57056 9643 ft 283 kts 90°
2026-04-25 17:22 30.82920 -86.54767 9627 ft 285 kts 90°
2026-04-25 17:22 30.82847 -86.53213 9619 ft 286 kts 90°
2026-04-25 17:22 30.82697 -86.50144 9613 ft 287 kts 90°
2026-04-25 17:22 30.82590 -86.47831 9612 ft 287 kts 90°
2026-04-25 17:23 30.82481 -86.45509 9608 ft 287 kts 90°
2026-04-25 17:23 30.82364 -86.43194 9608 ft 287 kts 90°
2026-04-25 17:23 30.82255 -86.40885 9608 ft 286 kts 90°
2026-04-25 17:23 30.82140 -86.38579 9607 ft 286 kts 90°
2026-04-25 17:24 30.82033 -86.36298 9606 ft 277 kts 90°
2026-04-25 17:24 30.81919 -86.34135 9598 ft 262 kts 90°
2026-04-25 17:24 30.81812 -86.32069 9595 ft 250 kts 90°
2026-04-25 17:24 30.81707 -86.30080 9504 ft 245 kts 90°
2026-04-25 17:25 30.81606 -86.28068 9202 ft 250 kts 90°
2026-04-25 17:25 30.81508 -86.26027 8840 ft 257 kts 90°
2026-04-25 17:25 30.81419 -86.23937 8308 ft 265 kts 90°
2026-04-25 17:25 30.81353 -86.21819 7780 ft 260 kts 90°
2026-04-25 17:26 30.81296 -86.19737 7250 ft 256 kts 90°
2026-04-25 17:26 30.81244 -86.17671 6723 ft 253 kts 90°
2026-04-25 17:26 30.81206 -86.15660 6204 ft 249 kts 90°
2026-04-25 17:26 30.81255 -86.13679 5687 ft 246 kts 87°
2026-04-25 17:27 30.81327 -86.11701 5175 ft 244 kts 87°
2026-04-25 17:27 30.81411 -86.09740 4661 ft 242 kts 87°
2026-04-25 17:27 30.81503 -86.07812 4151 ft 239 kts 87°
2026-04-25 17:27 30.81565 -86.06543 3958 ft 231 kts 87°
2026-04-25 17:28 30.81690 -86.04144 3661 ft 215 kts 87°
2026-04-25 17:28 30.81779 -86.02467 3613 ft 198 kts 87°
2026-04-25 17:28 30.81864 -86.00928 3625 ft 183 kts 86°
2026-04-25 17:28 30.81943 -85.99507 3626 ft 169 kts 87°
2026-04-25 17:29 30.82019 -85.98195 3623 ft 157 kts 87°
2026-04-25 17:29 30.82089 -85.96970 3618 ft 145 kts 88°
2026-04-25 17:29 30.82158 -85.95834 3621 ft 141 kts 86°
2026-04-25 17:29 30.82236 -85.94463 3695 ft 198 kts 87°
2026-04-25 17:30 30.82330 -85.92694 3670 ft 232 kts 87°
2026-04-25 17:30 30.82436 -85.90791 3646 ft 244 kts 86°
2026-04-25 17:30 30.82552 -85.88792 3645 ft 252 kts 86°
2026-04-25 17:30 30.82674 -85.86713 3640 ft 257 kts 86°
2026-04-25 17:31 30.82797 -85.84613 3530 ft 262 kts 86°
2026-04-25 17:31 30.82921 -85.82501 3477 ft 264 kts 86°
2026-04-25 17:31 30.83048 -85.80363 3487 ft 263 kts 86°
2026-04-25 17:31 30.83173 -85.78228 3493 ft 263 kts 86°
2026-04-25 17:32 30.83295 -85.76098 3492 ft 263 kts 86°
2026-04-25 17:32 30.83413 -85.74004 3486 ft 263 kts 86°
2026-04-25 17:32 30.83531 -85.71852 3484 ft 263 kts 86°
2026-04-25 17:32 30.83652 -85.69745 3482 ft 263 kts 86°
2026-04-25 17:33 30.83775 -85.67643 3469 ft 262 kts 86°
2026-04-25 17:33 30.83898 -85.65519 3455 ft 261 kts 86°
2026-04-25 17:33 30.84007 -85.63410 3454 ft 259 kts 90°
2026-04-25 17:33 30.83984 -85.61318 3463 ft 258 kts 91°
2026-04-25 17:34 30.83957 -85.59237 3466 ft 258 kts 91°
2026-04-25 17:34 30.83936 -85.57153 3463 ft 258 kts 91°
2026-04-25 17:34 30.83913 -85.55072 3461 ft 258 kts 91°
2026-04-25 17:34 30.83891 -85.52979 3459 ft 258 kts 91°
2026-04-25 17:35 30.83867 -85.50909 3464 ft 258 kts 91°
2026-04-25 17:35 30.83839 -85.48802 3460 ft 258 kts 91°
2026-04-25 17:35 30.83812 -85.46716 3461 ft 258 kts 91°
2026-04-25 17:35 30.83790 -85.44653 3463 ft 258 kts 91°
2026-04-25 17:36 30.83766 -85.42541 3458 ft 258 kts 91°
2026-04-25 17:36 30.83630 -85.40472 3456 ft 257 kts 96°
2026-04-25 17:36 30.83460 -85.38412 3453 ft 257 kts 96°
2026-04-25 17:36 30.83294 -85.36338 3453 ft 258 kts 96°
2026-04-25 17:37 30.83131 -85.34253 3453 ft 257 kts 96°
2026-04-25 17:37 30.82966 -85.32177 3450 ft 257 kts 97°
2026-04-25 17:37 30.82808 -85.30104 3455 ft 257 kts 97°
2026-04-25 17:37 30.82546 -85.28059 3447 ft 257 kts 101°
2026-04-25 17:38 30.82260 -85.25988 3454 ft 256 kts 100°
2026-04-25 17:38 30.82076 -85.24657 3457 ft 253 kts 100°
2026-04-25 17:38 30.81707 -85.21978 3462 ft 248 kts 101°
2026-04-25 17:38 30.81352 -85.20023 3462 ft 245 kts 104°
2026-04-25 17:39 30.80996 -85.18115 3463 ft 244 kts 105°
2026-04-25 17:39 30.80437 -85.16261 3465 ft 242 kts 113°
2026-04-25 17:39 30.79813 -85.14441 3462 ft 242 kts 113°
2026-04-25 17:39 30.79074 -85.12689 3461 ft 240 kts 120°
2026-04-25 17:40 30.78331 -85.10939 3434 ft 242 kts 107°
2026-04-25 17:40 30.77979 -85.09056 3453 ft 241 kts 103°
2026-04-25 17:40 30.77631 -85.07125 3453 ft 241 kts 103°
2026-04-25 17:40 30.77303 -85.05218 3460 ft 241 kts 103°
2026-04-25 17:41 30.76966 -85.03329 3457 ft 240 kts 103°
2026-04-25 17:41 30.76629 -85.01434 3460 ft 239 kts 103°
2026-04-25 17:41 30.76297 -84.99513 3456 ft 239 kts 103°
2026-04-25 17:41 30.75967 -84.97617 3454 ft 239 kts 103°
2026-04-25 17:42 30.75641 -84.95736 3456 ft 239 kts 103°
2026-04-25 17:42 30.75312 -84.93838 3460 ft 239 kts 103°
2026-04-25 17:42 30.74979 -84.91959 3459 ft 239 kts 103°
2026-04-25 17:42 30.74642 -84.90051 3451 ft 239 kts 103°
2026-04-25 17:43 30.74306 -84.88174 3450 ft 239 kts 103°
2026-04-25 17:43 30.73967 -84.86263 3450 ft 239 kts 103°
2026-04-25 17:43 30.73631 -84.84359 3454 ft 239 kts 103°
2026-04-25 17:43 30.73293 -84.82468 3455 ft 239 kts 103°
2026-04-25 17:44 30.72932 -84.80581 3452 ft 239 kts 106°
2026-04-25 17:44 30.72524 -84.78705 3453 ft 239 kts 106°
2026-04-25 17:44 30.72121 -84.76834 3446 ft 239 kts 106°
2026-04-25 17:44 30.71725 -84.74967 3444 ft 239 kts 105°
2026-04-25 17:45 30.71317 -84.73099 3449 ft 238 kts 106°
2026-04-25 17:45 30.71051 -84.71858 3449 ft 238 kts 106°
2026-04-25 17:45 30.70502 -84.69356 3456 ft 237 kts 105°
2026-04-25 17:45 30.70100 -84.67503 3458 ft 237 kts 106°
2026-04-25 17:46 30.69697 -84.65644 3453 ft 237 kts 106°
2026-04-25 17:46 30.69253 -84.63796 3450 ft 237 kts 111°
2026-04-25 17:46 30.68683 -84.61993 3460 ft 237 kts 111°
2026-04-25 17:46 30.68117 -84.60207 3471 ft 237 kts 112°
2026-04-25 17:47 30.67548 -84.58401 3450 ft 239 kts 111°
2026-04-25 17:47 30.66970 -84.56553 3386 ft 242 kts 112°
2026-04-25 17:47 30.66352 -84.54743 3317 ft 242 kts 118°
2026-04-25 17:47 30.65628 -84.52985 3250 ft 243 kts 117°
2026-04-25 17:48 30.64165 -84.49427 3102 ft 243 kts 117°
2026-04-25 17:48 30.63435 -84.47686 2924 ft 236 kts 121°
2026-04-25 17:48 30.62619 -84.46059 2742 ft 231 kts 122°
2026-04-25 17:49 30.61799 -84.44476 2561 ft 228 kts 124°
2026-04-25 17:49 30.60929 -84.42961 2376 ft 225 kts 126°
2026-04-25 17:49 30.60050 -84.41435 2184 ft 223 kts 126°
2026-04-25 17:49 30.59196 -84.39950 1994 ft 222 kts 126°
2026-04-25 17:50 30.58340 -84.38448 1812 ft 222 kts 125°
2026-04-25 17:50 30.57509 -84.36977 1720 ft 216 kts 124°
2026-04-25 17:50 30.56690 -84.35537 1609 ft 213 kts 125°
2026-04-25 17:50 30.55876 -84.34103 1521 ft 210 kts 126°
2026-04-25 17:51 30.54977 -84.32812 1412 ft 204 kts 152°
2026-04-25 17:51 30.53626 -84.32409 1472 ft 198 kts 175°
2026-04-25 17:51 30.52280 -84.32208 1498 ft 191 kts 175°
2026-04-25 17:51 30.50966 -84.32134 1460 ft 188 kts 192°
2026-04-25 17:52 30.49803 -84.32759 1480 ft 187 kts 227°
2026-04-25 17:52 30.49278 -84.33553 1496 ft 189 kts 233°
2026-04-25 17:52 30.48179 -84.35113 1492 ft 175 kts 218°
2026-04-25 17:52 30.47164 -84.35718 1358 ft 160 kts 197°
2026-04-25 17:53 30.46102 -84.35867 1226 ft 147 kts 181°
2026-04-25 17:53 30.45123 -84.35839 1092 ft 134 kts 182°
2026-04-25 17:53 30.44303 -84.35834 900 ft 96 kts 184°
2026-04-25 17:53 30.43707 -84.35809 780 ft 84 kts 186°
2026-04-25 17:54 30.43143 -84.35840 666 ft 76 kts 188°
2026-04-25 17:54 30.42594 -84.35873 550 ft 82 kts 186°
2026-04-25 17:54 30.42021 -84.35868 393 ft 84 kts 184°
2026-04-25 17:54 30.41433 -84.35879 204 ft 83 kts 185°
2026-04-25 17:55 30.40870 -84.35877 78 ft 77 kts 182°
2026-04-25 17:55 30.40339 -84.35885 207 ft 80 kts 186°
2026-04-25 17:55 30.39757 -84.35883 449 ft 89 kts 181°
2026-04-25 17:55 30.38916 -84.35847 606 ft 146 kts 180°
2026-04-25 17:56 30.37830 -84.35735 1139 ft 166 kts 175°
2026-04-25 17:56 30.36603 -84.35494 1547 ft 190 kts 170°
2026-04-25 17:56 30.35260 -84.35254 1940 ft 203 kts 188°
2026-04-25 17:56 30.34056 -84.36022 2314 ft 202 kts 230°
2026-04-25 17:57 30.33199 -84.37354 2434 ft 210 kts 233°
2026-04-25 17:57 30.32314 -84.38757 2518 ft 217 kts 234°
2026-04-25 17:57 30.31398 -84.40201 2498 ft 225 kts 234°
2026-04-25 17:57 30.31088 -84.40689 2497 ft 227 kts 233°
2026-04-25 17:58 30.29520 -84.43166 2490 ft 232 kts 234°
2026-04-25 17:58 30.28555 -84.44689 2497 ft 233 kts 234°
2026-04-25 17:58 30.27586 -84.46224 2492 ft 234 kts 233°
2026-04-25 17:58 30.26624 -84.47741 2495 ft 235 kts 234°
2026-04-25 17:59 30.25678 -84.49294 2471 ft 236 kts 242°
2026-04-25 17:59 30.25430 -84.51128 2510 ft 236 kts 269°
2026-04-25 17:59 30.25444 -84.53050 2499 ft 237 kts 269°
2026-04-25 17:59 30.25453 -84.54975 2494 ft 239 kts 269°
2026-04-25 18:00 30.25468 -84.56906 2485 ft 239 kts 269°
2026-04-25 18:00 30.25472 -84.58828 2485 ft 239 kts 269°
2026-04-25 18:00 30.25474 -84.60757 2487 ft 239 kts 269°
2026-04-25 18:00 30.25482 -84.62683 2486 ft 239 kts 269°
2026-04-25 18:01 30.25485 -84.64604 2494 ft 239 kts 269°
2026-04-25 18:01 30.25500 -84.66521 2497 ft 239 kts 268°
2026-04-25 18:01 30.25519 -84.68444 2484 ft 238 kts 269°
2026-04-25 18:01 30.25529 -84.70348 2484 ft 239 kts 269°
2026-04-25 18:02 30.25546 -84.72286 2472 ft 238 kts 269°
2026-04-25 18:02 30.25560 -84.74200 2471 ft 238 kts 268°
2026-04-25 18:02 30.25573 -84.76110 2471 ft 238 kts 269°
2026-04-25 18:02 30.25587 -84.78029 2473 ft 237 kts 269°
2026-04-25 18:03 30.25600 -84.79935 2474 ft 238 kts 269°
2026-04-25 18:03 30.25609 -84.81847 2467 ft 239 kts 269°
2026-04-25 18:03 30.25624 -84.83780 2465 ft 238 kts 268°
2026-04-25 18:03 30.25642 -84.85694 2466 ft 238 kts 269°
2026-04-25 18:04 30.25661 -84.87592 2469 ft 238 kts 269°
2026-04-25 18:04 30.25676 -84.89500 2465 ft 238 kts 269°
2026-04-25 18:04 30.25690 -84.91426 2458 ft 238 kts 269°
2026-04-25 18:04 30.25701 -84.93330 2458 ft 238 kts 266°
2026-04-25 18:05 30.25629 -84.95266 2469 ft 238 kts 266°
2026-04-25 18:05 30.25559 -84.97160 2470 ft 238 kts 265°
2026-04-25 18:05 30.25493 -84.99088 2464 ft 238 kts 265°
2026-04-25 18:05 30.25424 -85.00995 2476 ft 238 kts 266°
2026-04-25 18:06 30.25350 -85.02916 2472 ft 239 kts 265°
2026-04-25 18:06 30.25278 -85.04825 2476 ft 239 kts 266°
2026-04-25 18:06 30.25205 -85.06733 2474 ft 239 kts 266°
2026-04-25 18:06 30.25131 -85.08676 2477 ft 239 kts 266°
2026-04-25 18:07 30.25061 -85.10578 2479 ft 239 kts 266°
2026-04-25 18:07 30.24987 -85.12509 2483 ft 239 kts 266°
2026-04-25 18:07 30.24911 -85.14439 2483 ft 240 kts 265°
2026-04-25 18:07 30.24840 -85.16357 2479 ft 239 kts 266°
2026-04-25 18:08 30.24768 -85.18270 2477 ft 239 kts 266°
2026-04-25 18:08 30.24692 -85.20192 2483 ft 240 kts 266°
2026-04-25 18:08 30.24617 -85.22108 2487 ft 240 kts 266°
2026-04-25 18:08 30.24517 -85.24047 2481 ft 239 kts 263°
2026-04-25 18:09 30.24320 -85.25954 2485 ft 239 kts 262°
2026-04-25 18:09 30.24125 -85.27847 2484 ft 239 kts 263°
2026-04-25 18:09 30.23927 -85.29754 2490 ft 239 kts 262°
2026-04-25 18:09 30.23791 -85.31033 2492 ft 239 kts 262°
2026-04-25 18:10 30.23214 -85.33474 2488 ft 238 kts 233°
2026-04-25 18:10 30.22087 -85.34860 2498 ft 238 kts 226°
2026-04-25 18:10 30.20919 -85.36240 2498 ft 238 kts 226°
2026-04-25 18:10 30.19819 -85.37672 2489 ft 238 kts 235°
2026-04-25 18:11 30.18893 -85.39259 2506 ft 238 kts 236°
2026-04-25 18:11 30.17969 -85.40850 2499 ft 238 kts 236°
2026-04-25 18:11 30.17053 -85.42426 2495 ft 238 kts 236°
2026-04-25 18:11 30.16130 -85.44016 2497 ft 238 kts 236°
2026-04-25 18:12 30.15439 -85.45752 2510 ft 238 kts 251°
2026-04-25 18:12 30.14927 -85.47578 2505 ft 238 kts 251°
2026-04-25 18:12 30.14433 -85.49365 2488 ft 222 kts 251°
2026-04-25 18:12 30.13999 -85.50948 2478 ft 194 kts 251°
2026-04-25 18:13 30.13619 -85.52346 2466 ft 171 kts 252°
2026-04-25 18:13 30.13275 -85.53611 2283 ft 149 kts 252°
2026-04-25 18:13 30.12997 -85.54600 2159 ft 118 kts 249°
2026-04-25 18:14 30.12450 -85.56177 2354 ft 92 kts 231°
2026-04-25 18:14 30.12038 -85.56785 2398 ft 95 kts 230°
2026-04-25 18:14 30.11623 -85.57369 2464 ft 95 kts 227°
2026-04-25 18:14 30.11183 -85.57908 2151 ft 92 kts 224°
2026-04-25 18:15 30.10707 -85.58389 1724 ft 95 kts 218°
2026-04-25 18:15 30.10162 -85.58875 1318 ft 107 kts 216°
2026-04-25 18:15 30.09540 -85.59197 893 ft 92 kts 194°
2026-04-25 18:15 30.08944 -85.59220 564 ft 86 kts 171°
2026-04-25 18:16 30.08437 -85.58911 263 ft 82 kts 142°
2026-04-25 18:16 30.08031 -85.58440 78 ft 81 kts 142°
2026-04-25 18:16 30.07447 -85.57804 11 ft 8 kts 207°
2026-04-25 18:17 30.07382 -85.57747 11 ft 15 kts 145°
2026-04-25 18:17 30.07323 -85.57675 11 ft 14 kts 135°
2026-04-25 18:17 30.07221 -85.57574 11 ft 17 kts 172°
2026-04-25 18:17 30.07141 -85.57570 11 ft 5 kts 178°
2026-04-25 18:18 30.07106 -85.57569 11 ft 7 kts 177°
2026-04-25 18:18 30.07037 -85.57561 11 ft 11 kts 182°
2026-04-25 18:18 30.06967 -85.57563 13 ft 9 kts 182°
2026-04-25 18:18 30.06887 -85.57563 14 ft 13 kts 180°
2026-04-25 18:19 30.06815 -85.57562 14 ft 6 kts 180°
2026-04-25 18:19 30.06775 -85.57563 14 ft 5 kts 183°
2026-04-25 18:19 30.06739 -85.57563 14 ft 5 kts 176°
2026-04-25 18:19 30.06666 -85.57561 14 ft 14 kts 181°
2026-04-25 18:20 30.06558 -85.57561 14 ft 15 kts 179°
2026-04-25 18:20 30.06490 -85.57558 15 ft 3 kts 180°
2026-04-25 18:20 30.06469 -85.57559 16 ft 5 kts 182°
2026-04-25 18:20 30.06421 -85.57572 17 ft 4 kts 184°
2026-04-25 18:21 30.06415 -85.57561 17 ft 0 kts 357°
2026-04-25 18:22 30.06497 -85.57602 16 ft 10 kts 316°
2026-04-25 18:22 30.06529 -85.57641 16 ft 3 kts 311°
2026-04-25 18:23 30.06555 -85.57671 16 ft 9 kts 311°
2026-04-25 18:23 30.06588 -85.57711 16 ft 4 kts 323°
2026-04-25 18:23 30.06613 -85.57736 16 ft 5 kts 313°
2026-04-25 18:23 30.06652 -85.57784 16 ft 10 kts 313°
2026-04-25 18:24 30.06687 -85.57820 16 ft 4 kts 315°
2026-04-25 18:24 30.06715 -85.57857 16 ft 8 kts 311°
2026-04-25 18:24 30.06762 -85.57912 15 ft 10 kts 316°
2026-04-25 18:24 30.06816 -85.57976 14 ft 9 kts 316°
2026-04-25 18:25 30.06865 -85.58033 14 ft 10 kts 314°
2026-04-25 18:25 30.06906 -85.58081 14 ft 9 kts 311°
2026-04-25 18:25 30.06952 -85.58135 14 ft 6 kts 317°
2026-04-25 18:25 30.06971 -85.58157 14 ft 3 kts 313°
2026-04-25 18:26 30.07013 -85.58207 14 ft 11 kts 316°
2026-04-25 18:26 30.07065 -85.58268 15 ft 9 kts 314°
2026-04-25 18:26 30.07109 -85.58320 15 ft 9 kts 315°
2026-04-25 18:26 30.07157 -85.58375 15 ft 9 kts 314°
2026-04-25 18:27 30.07206 -85.58431 15 ft 10 kts 313°
2026-04-25 18:27 30.07257 -85.58491 15 ft 10 kts 317°
2026-04-25 18:27 30.07307 -85.58550 15 ft 9 kts 313°
2026-04-25 18:27 30.07349 -85.58600 15 ft 7 kts 314°
2026-04-25 18:28 30.07394 -85.58653 16 ft 12 kts 314°
2026-04-25 18:28 30.07447 -85.58714 16 ft 7 kts 313°
2026-04-25 18:28 30.07464 -85.58734 16 ft 0 kts 311°
2026-04-25 18:29 30.07551 -85.58836 16 ft 8 kts 315°
2026-04-25 18:29 30.07593 -85.58865 15 ft 8 kts 354°
2026-04-25 18:30 30.07659 -85.58723 14 ft 6 kts 136°
2026-04-25 18:30 30.07521 -85.58560 16 ft 78 kts 136°
2026-04-25 18:30 30.07051 -85.57978 303 ft 113 kts 137°
2026-04-25 18:30 30.06450 -85.57249 675 ft 148 kts 136°
2026-04-25 18:31 30.05671 -85.56314 1165 ft 173 kts 136°
2026-04-25 18:31 30.04860 -85.55213 1741 ft 190 kts 118°
2026-04-25 18:31 30.04743 -85.53693 2315 ft 191 kts 85°
2026-04-25 18:31 30.04919 -85.52160 2497 ft 197 kts 84°
2026-04-25 18:32 30.05175 -85.50565 2491 ft 213 kts 68°
2026-04-25 18:32 30.06242 -85.49357 2506 ft 224 kts 23°
2026-04-25 18:32 30.07788 -85.49211 2526 ft 228 kts 352°
2026-04-25 18:32 30.09408 -85.49425 2491 ft 235 kts 352°
2026-04-25 18:33 30.11040 -85.49733 2486 ft 237 kts 343°
2026-04-25 18:33 30.12622 -85.50244 2492 ft 240 kts 342°
2026-04-25 18:33 30.14243 -85.50789 2481 ft 241 kts 339°
2026-04-25 18:33 30.15549 -85.51955 2505 ft 236 kts 311°
2026-04-25 18:34 30.16649 -85.53357 2483 ft 238 kts 310°
2026-04-25 18:34 30.17716 -85.54818 2487 ft 237 kts 306°
2026-04-25 18:34 30.18719 -85.56336 2488 ft 238 kts 306°
2026-04-25 18:34 30.19722 -85.57866 2483 ft 238 kts 305°
2026-04-25 18:35 30.20673 -85.59448 2471 ft 237 kts 296°
2026-04-25 18:35 30.21423 -85.61146 2484 ft 236 kts 295°
2026-04-25 18:35 30.22168 -85.62840 2485 ft 236 kts 295°
2026-04-25 18:35 30.22924 -85.64545 2481 ft 236 kts 295°
2026-04-25 18:36 30.23678 -85.66254 2488 ft 236 kts 295°
2026-04-25 18:36 30.24415 -85.67937 2479 ft 236 kts 295°
2026-04-25 18:36 30.25153 -85.69625 2486 ft 235 kts 295°
2026-04-25 18:36 30.25910 -85.71339 2485 ft 235 kts 295°
2026-04-25 18:37 30.26652 -85.73032 2487 ft 235 kts 295°
2026-04-25 18:37 30.27398 -85.74733 2491 ft 236 kts 294°
2026-04-25 18:37 30.28157 -85.76429 2492 ft 236 kts 295°
2026-04-25 18:37 30.28900 -85.78117 2499 ft 236 kts 295°
2026-04-25 18:38 30.29646 -85.79800 2502 ft 236 kts 295°
2026-04-25 18:38 30.30398 -85.81484 2504 ft 236 kts 295°
2026-04-25 18:38 30.31157 -85.83190 2494 ft 236 kts 295°
2026-04-25 18:38 30.31909 -85.84872 2498 ft 235 kts 295°
2026-04-25 18:39 30.32661 -85.86558 2498 ft 235 kts 295°
2026-04-25 18:39 30.33407 -85.88236 2500 ft 235 kts 295°
2026-04-25 18:39 30.34145 -85.89915 2497 ft 235 kts 295°
2026-04-25 18:39 30.34906 -85.91620 2494 ft 235 kts 295°
2026-04-25 18:40 30.35652 -85.93287 2493 ft 235 kts 295°
2026-04-25 18:40 30.36405 -85.94970 2494 ft 235 kts 295°
2026-04-25 18:40 30.37152 -85.96655 2496 ft 235 kts 295°
2026-04-25 18:40 30.37902 -85.98336 2494 ft 235 kts 295°
2026-04-25 18:41 30.38652 -86.00008 2491 ft 235 kts 295°
2026-04-25 18:41 30.39422 -86.01684 2493 ft 235 kts 299°
2026-04-25 18:41 30.40276 -86.03307 2493 ft 236 kts 299°
2026-04-25 18:41 30.41136 -86.04929 2494 ft 236 kts 299°
2026-04-25 18:42 30.42001 -86.06567 2497 ft 236 kts 298°
2026-04-25 18:42 30.42573 -86.07644 2496 ft 236 kts 299°
2026-04-25 18:42 30.43718 -86.09830 2480 ft 236 kts 298°
2026-04-25 18:42 30.44578 -86.11447 2473 ft 236 kts 300°
2026-04-25 18:43 30.45446 -86.13086 2467 ft 236 kts 299°
2026-04-25 18:43 30.46296 -86.14701 2462 ft 235 kts 299°
2026-04-25 18:43 30.47146 -86.16317 2455 ft 235 kts 299°
2026-04-25 18:43 30.48007 -86.17953 2456 ft 235 kts 299°
2026-04-25 18:44 30.48856 -86.19563 2461 ft 235 kts 299°
2026-04-25 18:44 30.49702 -86.21172 2456 ft 235 kts 299°
2026-04-25 18:44 30.50570 -86.22802 2458 ft 235 kts 299°
2026-04-25 18:44 30.51465 -86.24391 2465 ft 235 kts 302°
2026-04-25 18:45 30.52391 -86.25964 2460 ft 235 kts 302°
2026-04-25 18:45 30.53323 -86.27531 2459 ft 235 kts 302°
2026-04-25 18:45 30.54252 -86.29088 2462 ft 235 kts 302°
2026-04-25 18:45 30.55174 -86.30643 2461 ft 235 kts 303°
2026-04-25 18:46 30.56106 -86.32214 2461 ft 235 kts 303°
2026-04-25 18:46 30.57028 -86.33775 2460 ft 235 kts 302°
2026-04-25 18:46 30.57956 -86.35340 2460 ft 235 kts 303°
2026-04-25 18:46 30.58877 -86.36908 2450 ft 235 kts 302°
2026-04-25 18:47 30.59817 -86.38493 2427 ft 236 kts 302°
2026-04-25 18:47 30.60743 -86.40053 2423 ft 235 kts 302°
2026-04-25 18:47 30.61671 -86.41610 2425 ft 235 kts 302°
2026-04-25 18:47 30.62600 -86.43182 2431 ft 235 kts 303°
2026-04-25 18:48 30.63536 -86.44759 2432 ft 235 kts 303°
2026-04-25 18:48 30.64453 -86.46307 2452 ft 234 kts 302°
2026-04-25 18:48 30.65393 -86.47875 2460 ft 234 kts 303°
2026-04-25 18:48 30.66408 -86.49363 2467 ft 235 kts 308°
2026-04-25 18:49 30.67454 -86.50815 2468 ft 235 kts 308°
2026-04-25 18:49 30.68507 -86.52290 2475 ft 235 kts 308°
2026-04-25 18:49 30.69545 -86.53743 2474 ft 236 kts 309°
2026-04-25 18:49 30.70635 -86.55177 2469 ft 236 kts 309°
2026-04-25 18:50 30.71722 -86.56602 2479 ft 236 kts 310°
2026-04-25 18:50 30.72813 -86.58027 2477 ft 236 kts 309°
2026-04-25 18:50 30.73918 -86.59472 2480 ft 236 kts 310°
2026-04-25 18:50 30.75008 -86.60874 2483 ft 237 kts 313°
2026-04-25 18:51 30.76162 -86.62244 2485 ft 237 kts 313°
2026-04-25 18:51 30.76939 -86.63165 2485 ft 237 kts 313°
2026-04-25 18:51 30.78495 -86.64983 2484 ft 237 kts 313°
2026-04-25 18:51 30.79668 -86.66361 2486 ft 237 kts 312°
2026-04-25 18:52 30.81005 -86.67475 2501 ft 238 kts 327°
2026-04-25 18:52 30.82004 -86.68956 2477 ft 233 kts 287°
2026-04-25 18:52 30.81982 -86.70771 2493 ft 229 kts 256°
2026-04-25 18:52 30.81513 -86.72551 2485 ft 230 kts 251°
2026-04-25 18:53 30.81004 -86.74326 2475 ft 230 kts 250°
2026-04-25 18:53 30.80501 -86.76084 2477 ft 230 kts 251°
2026-04-25 18:53 30.79988 -86.77863 2473 ft 230 kts 250°
2026-04-25 18:53 30.79462 -86.79600 2475 ft 230 kts 250°
2026-04-25 18:54 30.78396 -86.83123 2473 ft 231 kts 250°
2026-04-25 18:54 30.77865 -86.84879 2478 ft 230 kts 250°
2026-04-25 18:54 30.77336 -86.86645 2474 ft 231 kts 250°
2026-04-25 18:55 30.76806 -86.88407 2479 ft 231 kts 250°
2026-04-25 18:55 30.76175 -86.90112 2463 ft 231 kts 242°
2026-04-25 18:55 30.75439 -86.91775 2497 ft 229 kts 242°
2026-04-25 18:55 30.74725 -86.93422 2477 ft 230 kts 243°
2026-04-25 18:56 30.74031 -86.95111 2477 ft 229 kts 251°
2026-04-25 18:56 30.73369 -86.96766 2414 ft 226 kts 232°
2026-04-25 18:56 30.72469 -86.98186 2033 ft 211 kts 235°
2026-04-25 18:56 30.71592 -86.99445 1893 ft 185 kts 233°
2026-04-25 18:57 30.70958 -87.00610 1851 ft 163 kts 240°
2026-04-25 18:57 30.70458 -87.01804 1575 ft 157 kts 246°
2026-04-25 18:57 30.70329 -87.02947 1239 ft 145 kts 289°
2026-04-25 18:57 30.70746 -87.03506 895 ft 131 kts 332°
2026-04-25 18:58 30.71696 -87.03087 233 ft 107 kts 49°
2026-04-25 18:58 30.72073 -87.02583 176 ft 5 kts 95°
2026-04-25 18:58 30.72027 -87.02548 175 ft 14 kts 178°
2026-04-25 18:59 30.71931 -87.02571 175 ft 9 kts 189°
2026-04-25 18:59 30.71776 -87.02597 174 ft 13 kts 151°
2026-04-25 19:00 30.71771 -87.02583 174 ft 0 kts 89°